Location: Appeville
(49.3218°N, 1.3427°W)
Time: 01:00:24
(UTC+00:00)

Meteor 1-13 Rocket - Pass Details

Date: 08 December 2019
Orbit: 831 x 912 km, 81.3° (Epoch: 27 January)

Event Time Altitude Azimuth Distance (km) Brightness Sun altitude
Rises 06:54:09 0° 345° (NNW) 3,388 7.0 -8.3°
Reaches altitude 10° 06:56:34 10° 342° (NNW) 2,450 6.2 -7.9°
Maximum altitude 07:02:01 63° 263° (W) 933 4.2 -7.1°
Drops below altitude 10° 07:07:29 10° 184° (S) 2,455 7.0 -6.4°
Sets 07:09:55 0° 181° (S) 3,395 7.7 -6.0°
